When you browse on this site, cookies collect data to enhance your experience and personalize the content and advertising you see.
Visit our Privacy Policy to learn more. By continuing to use the site, you agree to this use of cookies and data.
  • In Österreich
  • Länderverzeichnis
  • Für 7 Tage
  • Wassertemperatur
  • Satellitenkarten
  • Wetterkarte
  • News
  • Widgets
  • user-avatar
    Anmelden

    Stündliche Wetter Faru

    Heute, 19 Mai, Sonntag

    Zeit Temperatur Niederschläge Wind Luftdruck Luftfeuchtigkeit
    00:00 +13°C° 0 mm 4 m/S 761 mmHg 81%
    01:00 +13°C° 0 mm 4 m/S 760 mmHg 81%
    02:00 +14°C° 0 mm 4 m/S 760 mmHg 81%
    03:00 +14°C° 0 mm 3 m/S 760 mmHg 82%
    04:00 +14°C° 0 mm 2 m/S 760 mmHg 83%
    05:00 +14°C° 0 mm 2 m/S 760 mmHg 80%
    06:00 +16°C° 0 mm 2 m/S 760 mmHg 73%
    07:00 +18°C° 0 mm 2 m/S 760 mmHg 66%
    08:00 +21°C° 0 mm 1 m/S 760 mmHg 59%
    09:00 +21°C° 0 mm 2 m/S 760 mmHg 57%
    10:00 +22°C° 0 mm 4 m/S 760 mmHg 54%
    11:00 +23°C° 0 mm 4 m/S 760 mmHg 54%
    12:00 +23°C° 0.1 mm 5 m/S 760 mmHg 54%
    13:00 +25°C° 0.1 mm 5 m/S 760 mmHg 53%
    14:00 +24°C° 0.1 mm 6 m/S 759 mmHg 52%
    15:00 +24°C° 0.1 mm 6 m/S 759 mmHg 54%
    16:00 +23°C° 0.1 mm 6 m/S 759 mmHg 56%
    17:00 +23°C° 0.1 mm 6 m/S 759 mmHg 59%
    18:00 +21°C° 0 mm 5 m/S 759 mmHg 67%
    19:00 +19°C° 0 mm 5 m/S 759 mmHg 76%
    20:00 +18°C° 0 mm 4 m/S 759 mmHg 85%
    21:00 +17°C° 0 mm 4 m/S 759 mmHg 88%
    22:00 +16°C° 0 mm 3 m/S 760 mmHg 91%
    23:00 +16°C° 0 mm 3 m/S 760 mmHg 94%

    Morgen, 20 Mai, Montag

    Zeit Temperatur Niederschläge Wind Luftdruck Luftfeuchtigkeit
    00:00 +14°C° 0 mm 3 m/S 759 mmHg 92%
    01:00 +14°C° 0 mm 3 m/S 759 mmHg 90%
    02:00 +13°C° 0 mm 3 m/S 759 mmHg 89%
    03:00 +13°C° 0 mm 3 m/S 759 mmHg 82%
    04:00 +13°C° 0 mm 3 m/S 759 mmHg 75%
    05:00 +12°C° 0 mm 3 m/S 759 mmHg 68%
    06:00 +16°C° 0 mm 3 m/S 759 mmHg 56%
    07:00 +18°C° 0 mm 2 m/S 760 mmHg 44%
    08:00 +21°C° 0 mm 2 m/S 760 mmHg 33%
    09:00 +22°C° 0 mm 3 m/S 760 mmHg 31%
    10:00 +25°C° 0 mm 3 m/S 760 mmHg 29%
    11:00 +27°C° 0 mm 3 m/S 760 mmHg 27%
    12:00 +27°C° 0 mm 4 m/S 760 mmHg 27%
    13:00 +28°C° 0 mm 5 m/S 759 mmHg 28%
    14:00 +28°C° 0 mm 6 m/S 759 mmHg 28%
    15:00 +27°C° 0 mm 6 m/S 759 mmHg 36%
    16:00 +24°C° 0 mm 7 m/S 759 mmHg 43%
    17:00 +23°C° 0 mm 7 m/S 759 mmHg 50%
    18:00 +21°C° 0 mm 7 m/S 759 mmHg 58%
    19:00 +19°C° 0 mm 6 m/S 760 mmHg 67%
    20:00 +16°C° 0 mm 5 m/S 760 mmHg 76%
    21:00 +16°C° 0 mm 5 m/S 760 mmHg 79%
    22:00 +15°C° 0 mm 5 m/S 760 mmHg 81%
    23:00 +15°C° 0 mm 5 m/S 761 mmHg 84%

    übermorgen, 21 Mai, Dienstag

    Zeit Temperatur Niederschläge Wind Luftdruck Luftfeuchtigkeit
    00:00 +15°C° 0 mm 5 m/S 760 mmHg 85%
    01:00 +14°C° 0 mm 5 m/S 760 mmHg 87%
    02:00 +14°C° 0 mm 5 m/S 760 mmHg 88%
    03:00 +14°C° 0 mm 4 m/S 760 mmHg 90%
    04:00 +14°C° 0 mm 4 m/S 760 mmHg 92%
    05:00 +14°C° 0 mm 3 m/S 760 mmHg 94%
    06:00 +17°C° 0 mm 3 m/S 761 mmHg 83%
    07:00 +20°C° 0 mm 3 m/S 761 mmHg 71%
    08:00 +22°C° 0 mm 3 m/S 761 mmHg 60%
    09:00 +24°C° 0 mm 3 m/S 761 mmHg 55%
    10:00 +26°C° 0 mm 4 m/S 761 mmHg 50%
    11:00 +27°C° 0 mm 4 m/S 761 mmHg 45%
    12:00 +27°C° 0 mm 4 m/S 761 mmHg 46%
    13:00 +27°C° 0 mm 5 m/S 760 mmHg 47%
    14:00 +26°C° 0 mm 5 m/S 760 mmHg 48%
    15:00 +26°C° 0 mm 6 m/S 760 mmHg 48%
    16:00 +26°C° 0 mm 6 m/S 760 mmHg 48%
    17:00 +26°C° 0 mm 7 m/S 760 mmHg 49%
    18:00 +22°C° 0 mm 6 m/S 760 mmHg 58%
    19:00 +20°C° 0 mm 5 m/S 761 mmHg 66%
    20:00 +16°C° 0 mm 5 m/S 761 mmHg 75%
    21:00 +16°C° 0 mm 5 m/S 761 mmHg 77%
    22:00 +17°C° 0 mm 4 m/S 761 mmHg 78%
    23:00 +17°C° 0 mm 4 m/S 761 mmHg 80%

    22 Mai, Mittwoch

    Zeit Temperatur Niederschläge Wind Luftdruck Luftfeuchtigkeit
    00:00 +17°C° 0 mm 4 m/S 761 mmHg 81%
    01:00 +15°C° 0 mm 4 m/S 761 mmHg 82%
    02:00 +16°C° 0 mm 3 m/S 760 mmHg 83%
    03:00 +16°C° 0 mm 3 m/S 760 mmHg 82%
    04:00 +16°C° 0 mm 3 m/S 760 mmHg 81%
    05:00 +16°C° 0 mm 3 m/S 760 mmHg 80%
    06:00 +19°C° 0 mm 2 m/S 760 mmHg 70%
    07:00 +23°C° 0 mm 2 m/S 761 mmHg 59%
    08:00 +26°C° 0 mm 2 m/S 761 mmHg 48%
    09:00 +28°C° 0 mm 2 m/S 761 mmHg 43%
    10:00 +30°C° 0 mm 3 m/S 761 mmHg 39%
    11:00 +31°C° 0 mm 3 m/S 761 mmHg 35%
    12:00 +31°C° 0 mm 3 m/S 761 mmHg 36%
    13:00 +32°C° 0 mm 4 m/S 761 mmHg 37%
    14:00 +30°C° 0 mm 4 m/S 760 mmHg 38%
    15:00 +30°C° 0 mm 4 m/S 760 mmHg 40%
    16:00 +29°C° 0 mm 4 m/S 760 mmHg 42%
    17:00 +28°C° 0 mm 3 m/S 760 mmHg 44%
    18:00 +26°C° 0 mm 4 m/S 760 mmHg 49%
    19:00 +23°C° 0 mm 4 m/S 761 mmHg 54%
    20:00 +21°C° 0 mm 4 m/S 761 mmHg 59%
    21:00 +21°C° 0 mm 4 m/S 761 mmHg 58%
    22:00 +20°C° 0 mm 5 m/S 761 mmHg 58%
    23:00 +20°C° 0 mm 5 m/S 761 mmHg 57%

    23 Mai, Donnerstag

    Zeit Temperatur Niederschläge Wind Luftdruck Luftfeuchtigkeit
    00:00 +19°C° 0 mm 4 m/S 761 mmHg 56%
    01:00 +19°C° 0 mm 4 m/S 761 mmHg 55%
    02:00 +19°C° 0 mm 3 m/S 761 mmHg 54%
    03:00 +18°C° 0 mm 3 m/S 761 mmHg 54%
    04:00 +18°C° 0 mm 3 m/S 761 mmHg 55%
    05:00 +18°C° 0 mm 3 m/S 761 mmHg 55%
    06:00 +20°C° 0 mm 3 m/S 761 mmHg 50%
    07:00 +24°C° 0 mm 2 m/S 762 mmHg 44%
    08:00 +26°C° 0 mm 2 m/S 762 mmHg 38%
    09:00 +28°C° 0 mm 2 m/S 762 mmHg 35%
    10:00 +31°C° 0 mm 2 m/S 762 mmHg 32%
    11:00 +34°C° 0 mm 2 m/S 761 mmHg 28%
    12:00 +34°C° 0 mm 2 m/S 761 mmHg 28%
    13:00 +35°C° 0 mm 3 m/S 761 mmHg 27%
    14:00 +35°C° 0 mm 4 m/S 760 mmHg 26%
    15:00 +34°C° 0 mm 4 m/S 760 mmHg 27%
    16:00 +33°C° 0 mm 4 m/S 760 mmHg 28%
    17:00 +32°C° 0 mm 4 m/S 760 mmHg 29%
    18:00 +29°C° 0 mm 5 m/S 761 mmHg 32%
    19:00 +27°C° 0 mm 6 m/S 761 mmHg 36%
    20:00 +24°C° 0 mm 7 m/S 761 mmHg 39%
    21:00 +23°C° 0 mm 7 m/S 761 mmHg 41%
    22:00 +22°C° 0 mm 6 m/S 762 mmHg 43%
    23:00 +21°C° 0 mm 6 m/S 762 mmHg 45%

    24 Mai, Freitag

    Zeit Temperatur Niederschläge Wind Luftdruck Luftfeuchtigkeit
    00:00 +20°C° 0 mm 5 m/S 761 mmHg 51%
    01:00 +19°C° 0 mm 4 m/S 761 mmHg 56%
    02:00 +19°C° 0 mm 3 m/S 761 mmHg 61%
    03:00 +18°C° 0 mm 3 m/S 761 mmHg 64%
    04:00 +18°C° 0 mm 3 m/S 761 mmHg 68%
    05:00 +17°C° 0 mm 3 m/S 761 mmHg 72%
    06:00 +20°C° 0 mm 3 m/S 761 mmHg 62%
    07:00 +25°C° 0 mm 2 m/S 761 mmHg 52%
    08:00 +28°C° 0 mm 2 m/S 761 mmHg 41%
    09:00 +30°C° 0 mm 2 m/S 761 mmHg 37%
    10:00 +32°C° 0 mm 2 m/S 761 mmHg 32%
    11:00 +35°C° 0 mm 3 m/S 761 mmHg 28%
    12:00 +35°C° 0 mm 3 m/S 760 mmHg 27%
    13:00 +36°C° 0 mm 3 m/S 760 mmHg 26%
    14:00 +36°C° 0 mm 3 m/S 760 mmHg 26%
    15:00 +35°C° 0 mm 3 m/S 760 mmHg 28%
    16:00 +34°C° 0 mm 4 m/S 760 mmHg 30%
    17:00 +34°C° 0 mm 4 m/S 760 mmHg 33%
    18:00 +30°C° 0 mm 3 m/S 760 mmHg 38%
    19:00 +28°C° 0 mm 3 m/S 760 mmHg 43%
    20:00 +26°C° 0 mm 2 m/S 761 mmHg 49%
    21:00 +26°C° 0 mm 2 m/S 761 mmHg 49%
    22:00 +25°C° 0 mm 2 m/S 761 mmHg 49%
    23:00 +25°C° 0 mm 1 m/S 761 mmHg 49%
    Mehr zeigen